This is the latest recevied weather packets stored in our database for station/object WB7AAV. If no packets are shown the sender has not sent any weather packets the latest 10 day(s).
| Time | Temp. | Humidity | Pressure | Rain* | Wind** | Luminosity | Snow |
|---|---|---|---|---|---|---|---|
| 1777286244 | 3.89° C | 72% | 1007.4 hPa | 0 mm | - | - | - |
| 1777282941 | 3.89° C | 87% | 1006.8 hPa | 0 mm | - | - | - |
| 1777281440 | 3.89° C | 90% | 1006.6 hPa | 0 mm | - | - | - |
| 1777281140 | 3.33° C | 89% | 1006.5 hPa | 0 mm | - | - | - |
| 1777277835 | 3.89° C | 91% | 1006.6 hPa | 0 mm | - | - | - |
| 1777276936 | 3.89° C | 89% | 1007 hPa | 0 mm | - | - | - |
| 1777275430 | 4.44° C | 88% | 1006.8 hPa | 0 mm | - | - | - |
| 1777275128 | 4.44° C | 88% | 1006.8 hPa | 0 mm | - | - | - |
| 1777273930 | 4.44° C | 87% | 1007 hPa | 0 mm | - | - | - |
| 1777273328 | 5° C | 85% | 1006.7 hPa | 0 mm | - | - | - |
| 1777269735 | 5° C | 89% | 1006.8 hPa | 0 mm | - | - | - |
| 1777268830 | 5° C | 88% | 1006.5 hPa | 0 mm | - | - | - |
| 1777265527 | 5° C | 87% | 1006.7 hPa | 0 mm | - | - | - |
| 1777264927 | 5° C | 87% | 1006.7 hPa | 0 mm | - | - | - |
| 1777264026 | 5° C | 87% | 1006.5 hPa | 0 mm | - | - | - |
| 1777263127 | 5° C | 85% | 1006.6 hPa | 0 mm | - | - | - |
| 1777262826 | 5.56° C | 83% | 1006.6 hPa | 0 mm | - | - | - |
| 1777262226 | 6.11° C | 79% | 1006.2 hPa | 0 mm | - | - | - |
| 1777261930 | 6.11° C | 79% | 1006 hPa | 0 mm | - | - | - |
| 1777261926 | 6.11° C | 79% | 1006 hPa | 0 mm | - | - | - |
| 1777261323 | 6.11° C | 79% | 1006 hPa | 0 mm | - | - | - |
| 1777260428 | 6.67° C | 70% | 1005.7 hPa | 0 mm | - | - | - |
| 1777260422 | 7.22° C | 70% | 1005.7 hPa | 0 mm | - | - | - |
| 1777259304 | 6.67° C | 75% | 1005.4 hPa | 0 mm | - | - | - |
| 1777256220 | 7.78° C | 75% | 1005 hPa | 0.25 mm | - | - | - |
* Rain latest hour (hover to see other rain measurements)
** Current wind speed in m/s (hover to see current wind gust speed)